Αρχική σελίδα
METAR-TAF:

METAR-TAF

Αεροδρόμια :

Perryton Ochiltree County Airport

Perryton, Τέξας, Ηνωμένες Πολιτείες Αμερικής

γεωγραφικό πλάτος: 36-24N, γεωγραφικό μήκος: 100-44W, υψόμετρο: 890 μ

Παρών καιρός

Η αναφορά έγινε 30 λεπτά πριν, στις 09:55 UTC
Άνεμος 28 kt από Β με ριπές μέχρι 34 kt
Θερμοκρασία 3°C
Υγρασία 75%
Πίεση 1009 hPa
Ορατότητα: 16.1 χλμ
Καθαρός ουρανός

METAR: KPYX 130955Z AUTO 36028G34KT 10SM CLR 03/M01 A2981 RMK AO2 T00281007

Χρόνος: 04:25 (10:25 UTC)


TAF: λείπει

Μετεωρολογικές αναφορές και προγνώσεις για περισσότερα από 4000 αεροδρόμια (δελτία METAR και TAF).

Οι διαθέσιμοι σταθμοί απεικονίζονται στο χάρτη με κίτρινες και κόκκινες κουκκίδες.

Μετακινήστε το ποντίκι πάνω από τις κουκκίδες για να δείτε το όνομα του σταθμού.

Στη συνέχεια, κάντε κλικ για να δείτε τις μετεωρολογικές αναφορές και τις προγνώσεις καιρού.

Για να αλλάξετε το χάρτη: κάντε κλικ στα πράσινα κουμπιά με τον μαύρο σταυρό για να ζουμάρετε, στο πράσινο κουμπί με την παύλα για να αφαιρέσετε το ζουμ ή στα πράσινα βέλη για να αντιπαραβάλλετε χάρτες.


METAR-TAF: